カタログに戻る

SONATE-2

運用中アマチュア無線PO
NORAD 59112·PAYLOAD·🇩🇪 Germany

打ち上げ Mar 4, 2024 から Vandenberg Space Force Base

Loading…

次のパス (今後24時間)

TLE

最新Source: AMSAT

元期: Sep 14, 2026, 05:48 UTC

1 59112U 24043Q   26257.24223457  .00044891  00000-0  44284-3 0  9993
2 59112  97.5625  53.6316 0005343 228.2755 131.8048 15.65799600141799

AllMySatでSONATE-2をリアルタイム追跡

Download on the App Store